Regional Weather Roundup
Issued by NWS

Home | Current Version | Previous Version | Text Only | Print | Product List | Glossary On
Versions: 1 2 3 4 5 6 7 8 9 10 11 12 13 14 15 16 17 18 19 20 21 22 23 24 25 26 27 28 29 30 31 32 33 34 35 36 37 38 39 40 41 42 43 44 45 46 47 48 49 50
000
ASCA42 TJSJ 020510
RWRPR
PUERTO RICO/U.S. VIRGIN ISLANDS HOURLY WEATHER ROUNDUP
NATIONAL WEATHER SERVICE SAN JUAN PR
100 AM AST THU JUL 02 2015

PRZ001-004-020600-
PUERTO RICO

CITY           SKY/WX    TMP DP  RH WIND       PRES   REMARKS
SAN JUAN LMM   PTCLDY    81  73  78 E6        30.09F
PONCE          PTCLDY    79  72  78 NE6       30.03
CEIBA          CLOUDY    81  73  78 E9        30.11F
$$

PRZ006-007-020600-
U.S. VIRGIN ISLANDS

CITY           SKY/WX    TMP DP  RH WIND       PRES   REMARKS
CHARLOTTE AMA  CLOUDY    82  73  74 E14       30.08F
CHRISTIANSTED  CLOUDY    81  72  74 NE8       30.09F
$$

HOURLY WEATHER ROUNDUP FOR THE NEWS MEDIA

CITY           SKY/WX    TMP DP  RH WIND       PRES   REMARKS
ORLANDO        CLOUDY    77  73  87 SW6       30.12F
NEW YORK       PTCLDY    77  58  51 W10       29.87S
NEWARK         CLOUDY    74  60  61 W10       29.87R
CHICAGO        MOCLDY    54  49  83 N6        30.00S
HARTFORD       PTCLDY    66  64  93 W3        29.83R
BOSTON         MOCLDY    68  60  75 SW13      29.81S
DALLAS         PTCLDY    81  67  62 S12       29.97R
PHILADELPHIA   PTCLDY    75  59  57 W5        29.90S
LOS ANGELES    MOCLDY    67  63  87 W6        29.95R
WASHINGTON DC  PTCLDY    70  63  78 CALM      29.92R


USA.gov is the U.S. government's official web portal to all federal, state and local government web resources and services.